WetterOnline ( https://www.wetteronline.de )

Wetter aktuell Gifhorn

Aktuelles Wetter: Braunschweig/Flughafen (88m)

6-stündlich | Neueste Meldungen
Ortszeit Temperatur Wetter
Mi, 08.02. 13:00 3.3° C wolkig
Mi, 08.02. 7:00 -5.8° C wolkig
Mi, 08.02. 1:00 -4.4° C leicht bewölkt
Di, 07.02. 19:00 -1.4° C fast wolkenlos
Di, 07.02. 13:00 1.5° C wolkig
Di, 07.02. 7:00 -3.9° C leicht bewölkt
Di, 07.02. 1:00 -1.6° C leicht bewölkt
Mo, 06.02. 19:00 1.0° C leicht bewölkt
Ortszeit Temperatur Wetter
Mi, 08.02. 17:00 0.7° C wolkig
Mi, 08.02. 16:50 0.7° C bedeckt
Mi, 08.02. 16:40 1.1° C bedeckt
Mi, 08.02. 16:30 1.8° C bedeckt
Mi, 08.02. 16:20 1.8° C bedeckt
Mi, 08.02. 16:10 1.9° C bedeckt
Mi, 08.02. 16:00 2.3° C wolkig
Mi, 08.02. 15:30 2.9° C bedeckt
Mi, 08.02. 15:00 4.4° C wolkenlos
Mi, 08.02. 14:30 4.3° C fast wolkenlos
Mi, 08.02. 14:00 3.8° C leicht bewölkt
Mi, 08.02. 13:30 3.7° C bedeckt
Ortszeit Relative Feuchte Sichtweite
Mi, 08.02. 13:00 51% 25 km
Mi, 08.02. 7:00 93% 4.0 km
Mi, 08.02. 1:00 96% 2.9 km
Di, 07.02. 19:00 84% 10 km
Di, 07.02. 13:00 56% 26 km
Di, 07.02. 7:00 93% 9 km
Di, 07.02. 1:00 86% 30 km
Mo, 06.02. 19:00 75% 55 km
Ortszeit Relative Feuchte Sichtweite
Mi, 08.02. 17:00 72% 15 km
Mi, 08.02. 16:50 72% -
Mi, 08.02. 16:40 69% -
Mi, 08.02. 16:30 63% 24 km
Mi, 08.02. 16:20 63% -
Mi, 08.02. 16:10 61% -
Mi, 08.02. 16:00 58% 26 km
Mi, 08.02. 15:30 56% 30 km
Mi, 08.02. 15:00 49% 30 km
Mi, 08.02. 14:30 42% 40 km
Mi, 08.02. 14:00 47% 45 km
Mi, 08.02. 13:30 51% 29 km
Ortszeit Niederschlagsmenge Niederschlagsart
Mi, 08.02. 13:00 0.0 l/m2 in 6 Std. -
Mi, 08.02. 7:00 0.0 l/m2 in 12 Std. -
Mi, 08.02. 1:00 0.0 l/m2 in 6 Std. -
Di, 07.02. 19:00 0.0 l/m2 in 12 Std. -
Di, 07.02. 13:00 0.0 l/m2 in 6 Std. -
Di, 07.02. 7:00 0.0 l/m2 in 12 Std. -
Di, 07.02. 1:00 0.0 l/m2 in 6 Std. -
Mo, 06.02. 19:00 0.0 l/m2 in 12 Std. -
Ortszeit Niederschlagsmenge Niederschlagsart
Mi, 08.02. 17:00 0.0 l/m2 in 1 Std. -
Mi, 08.02. 16:50 keine Meldung -
Mi, 08.02. 16:40 keine Meldung -
Mi, 08.02. 16:30 0.0 l/m2 in 30 Min -
Mi, 08.02. 16:20 keine Meldung -
Mi, 08.02. 16:10 keine Meldung -
Mi, 08.02. 16:00 0.0 l/m2 in 1 Std. -
Mi, 08.02. 15:30 0.0 l/m2 in 30 Min -
Mi, 08.02. 15:00 0.0 l/m2 in 1 Std. -
Mi, 08.02. 14:30 0.0 l/m2 in 30 Min -
Mi, 08.02. 14:00 0.0 l/m2 in 1 Std. -
Mi, 08.02. 13:30 0.0 l/m2 in 30 Min -
Ortszeit Stärke Spitze Richtung
km/h Bft. km/h Grad Sektor
Mi, 08.02. 13:00 7 2 14 120° SO
Mi, 08.02. 7:00 7 2 22 140° SO
Mi, 08.02. 1:00 4 1 18 130° SO
Di, 07.02. 19:00 7 2 18 150° SO
Di, 07.02. 13:00 4 1 14 340° N
Di, 07.02. 7:00 7 2 18 160° S
Di, 07.02. 1:00 7 2 22 140° SO
Mo, 06.02. 19:00 4 1 22 100° O
Ortszeit Stärke Spitze Richtung
km/h Bft. km/h Grad Sektor
Mi, 08.02. 17:00 13 3 20 140° SO
Mi, 08.02. 16:50 13 3 - 140° SO
Mi, 08.02. 16:40 14 3 - 140° SO
Mi, 08.02. 16:30 11 2 22 150° SO
Mi, 08.02. 16:20 11 2 - 150° SO
Mi, 08.02. 16:10 13 3 - 140° SO
Mi, 08.02. 16:00 13 3 26 150° SO
Mi, 08.02. 15:30 15 3 26 150° SO
Mi, 08.02. 15:00 9 2 19 160° S
Mi, 08.02. 14:30 7 2 18 130° SO
Mi, 08.02. 14:00 9 2 17 110° O
Mi, 08.02. 13:30 7 2 14 100° O
Ortszeit Untergrenze Bedeckung Gattung
total tief tief mittel hoch
Mi, 08.02. 13:00 - 8/8 - - - -
Mi, 08.02. 7:00 60 m 5/8 5/8 - - -
Mi, 08.02. 1:00 390 m 3/8 3/8 - - -
Di, 07.02. 19:00 360 m 1/8 1/8 - - -
Di, 07.02. 13:00 - 8/8 - - - -
Di, 07.02. 7:00 330 m 2/8 2/8 - - -
Di, 07.02. 1:00 420 m 3/8 3/8 - - -
Mo, 06.02. 19:00 780 m 2/8 2/8 - - -
Ortszeit Bedeckungsgrad in Achtel und Wolkenuntergrenze
Mi, 08.02. 17:00 8
Mi, 08.02. 16:50 9 9 9
Mi, 08.02. 16:40 8
Mi, 08.02. 16:30 9 9 9
Mi, 08.02. 16:20 9 9 9
Mi, 08.02. 16:10 8
Mi, 08.02. 16:00 8
Mi, 08.02. 15:30 9 9 9
Mi, 08.02. 15:00 keine Wolken
Mi, 08.02. 14:30 1(330m)
Mi, 08.02. 14:00 2(330m)
Mi, 08.02. 13:30 9 9 9
Ortszeit Luftdruck NN (hPa) Tendenz (hPa in 3 Std.)
Mi, 08.02. 13:00 1040 - 0,8
Mi, 08.02. 7:00 1041 + 0,2
Mi, 08.02. 1:00 1042 + 0,2
Di, 07.02. 19:00 1042 + 0,1
Di, 07.02. 13:00 1042 - 0,4
Di, 07.02. 7:00 1042 + 0,1
Di, 07.02. 1:00 1043 + 1,0
Mo, 06.02. 19:00 1041 + 0,8
Ortszeit Luftdruck NN (hPa) Tendenz (hPa in 3 Std.)
Mi, 08.02. 17:00 1038 - 1,5
Mi, 08.02. 16:50 1038 keine Meldung
Mi, 08.02. 16:40 1038 keine Meldung
Mi, 08.02. 16:30 1038 - 1,7
Mi, 08.02. 16:20 1038 keine Meldung
Mi, 08.02. 16:10 1038 keine Meldung
Mi, 08.02. 16:00 1038 - 1,6
Mi, 08.02. 15:30 1039 - 1,6
Mi, 08.02. 15:00 1039 - 1,8
Mi, 08.02. 14:30 1039 - 1,7
Mi, 08.02. 14:00 1040 - 1,2
Mi, 08.02. 13:30 1040 - 0,9
Ortszeit Schneehöhe (cm)
Mi, 08.02. 13:00 0
Mi, 08.02. 7:00 0
Mi, 08.02. 1:00 0
Di, 07.02. 19:00 0
Di, 07.02. 13:00 0
Di, 07.02. 7:00 0
Di, 07.02. 1:00 0
Mo, 06.02. 19:00 0
Ortszeit Schneehöhe (cm)
Mi, 08.02. 17:00 0
Mi, 08.02. 16:50 0
Mi, 08.02. 16:40 0
Mi, 08.02. 16:30 0
Mi, 08.02. 16:20 0
Mi, 08.02. 16:10 0
Mi, 08.02. 16:00 0
Mi, 08.02. 15:30 0
Mi, 08.02. 15:00 0
Mi, 08.02. 14:30 0
Mi, 08.02. 14:00 0
Mi, 08.02. 13:30 0
Link zu dieser Seite / Seite empfehlen

Das Wetter in ...